This is the latest recevied weather packets stored in our database for station/object N0NB. If no packets are shown the sender has not sent any weather packets the latest 10 day(s).
| Time | Temp. | Humidity | Pressure | Rain* | Wind** | Luminosity | Snow |
|---|---|---|---|---|---|---|---|
| 1777909816 | 25° C | 38% | 1002.2 hPa | 0 mm | - | 672 W/m² | - |
| 1777909216 | 24.44° C | 42% | 1002.1 hPa | 0 mm | - | 651 W/m² | - |
| 1777908616 | 23.33° C | 45% | 1002.3 hPa | 0 mm | - | 624 W/m² | - |
| 1777908016 | 22.78° C | 48% | 1002.1 hPa | 0 mm | - | 598 W/m² | - |
| 1777907416 | 22.22° C | 50% | 1002.1 hPa | 0 mm | - | 574 W/m² | - |
| 1777906816 | 21.11° C | 50% | 1002 hPa | 0 mm | - | 546 W/m² | - |
| 1777906216 | 20.56° C | 55% | 1001.9 hPa | 0 mm | - | 517 W/m² | - |
| 1777905616 | 20° C | 54% | 1002 hPa | 0 mm | - | 488 W/m² | - |
| 1777905016 | 19.44° C | 57% | 1001.9 hPa | 0 mm | - | 461 W/m² | - |
| 1777904416 | 18.33° C | 58% | 1001.9 hPa | 0 mm | - | 408 W/m² | - |
| 1777903816 | 17.78° C | 60% | 1001.8 hPa | 0 mm | - | 339 W/m² | - |
| 1777903216 | 17.22° C | 62% | 1001.8 hPa | 0 mm | - | 298 W/m² | - |
| 1777902616 | 17.22° C | 63% | 1001.7 hPa | 0 mm | - | 281 W/m² | - |
| 1777902016 | 16.67° C | 64% | 1001.6 hPa | 0 mm | - | 267 W/m² | - |
| 1777901416 | 16.11° C | 63% | 1001.7 hPa | 0 mm | - | 238 W/m² | - |
| 1777900816 | 15.56° C | 66% | 1001.6 hPa | 0 mm | - | 167 W/m² | - |
| 1777900216 | 15° C | 66% | 1001.5 hPa | 0 mm | - | 161 W/m² | - |
| 1777899616 | 14.44° C | 67% | 1001.5 hPa | 0 mm | - | 157 W/m² | - |
| 1777899016 | 13.89° C | 70% | 1001.6 hPa | 0 mm | - | 139 W/m² | - |
| 1777898416 | 13.33° C | 73% | 1001.4 hPa | 0 mm | - | 116 W/m² | - |
| 1777897816 | 11.67° C | 79% | 1001.3 hPa | 0 mm | - | 81 W/m² | - |
| 1777897216 | 9.44° C | 82% | 1001 hPa | 0 mm | - | 61 W/m² | - |
| 1777896616 | 8.33° C | 83% | 1000.7 hPa | 0 mm | - | 46 W/m² | - |
| 1777896015 | 7.78° C | 82% | 1000.9 hPa | 0 mm | - | 29 W/m² | - |
| 1777895415 | 7.22° C | 81% | 1000.8 hPa | 0 mm | - | 17 W/m² | - |
* Rain latest hour (hover to see other rain measurements)
** Current wind speed in m/s (hover to see current wind gust speed)